Regional Weather Roundup
Issued by NWS

Home | Current Version | Previous Version | Graphics & Text | Print | Product List | Glossary On
Versions: 1 2 3 4 5 6 7 8 9 10 11 12 13 14 15 16 17 18 19 20 21 22 23 24 25 26 27 28 29 30 31 32 33 34 35 36 37 38 39 40 41 42 43 44 45 46 47 48 49 50
000
ASUS43 KDTX 262110
RWRMI
MICHIGAN HOURLY REGIONAL WEATHER ROUNDUP
NATIONAL WEATHER SERVICE DETROIT/PONTIAC MI
500 PM EDT SUN MAR 26 2017

NOTE: "FAIR" INDICATES FEW OR NO CLOUDS BELOW 12,000 FEET WITH NO
SIGNIFICANT WEATHER AND/OR OBSTRUCTION TO VISIBILITY.

MIZ047>049-052>055-059>063-066>070-074>076-081>083-262200-
SOUTHEAST LOWER MICHIGAN

CITY           SKY/WX    TMP DP  RH WIND       PRES   REMARKS
ADRIAN         PTSUNNY   52  50  93 E7        29.88F FOG
ALMA           CLOUDY    48  47  97 E6        29.88F
ANN ARBOR      CLOUDY    52  50  93 E5        29.89S FOG
BAD AXE        LGT RAIN  45  44  95 SE5       29.90F
CARO           HVY RAIN  48  47  97 SE7       29.88F
DETROIT CITY   CLOUDY    48  47  96 SE6       29.92F FOG
DETROIT        LGT RAIN  51  49  92 E5        29.91F FOG
FLINT          CLOUDY    51  49  92 S8        29.88F
GROSSE ILE     RAIN      48  46  93 CALM      29.90F
HILLSDALE      PTSUNNY   54  50  87 S5        29.86S
HOWELL         CLOUDY    50  48  92 SE8       29.88S FOG

CITY           SKY/WX    TMP DP  RH WIND       PRES   REMARKS
JACKSON        CLOUDY    53  50  89 SE6       29.87F
LAMBERTVILLE   CLOUDY    49  46  91 E3        29.88F FOG
LANSING        CLOUDY    54  49  83 S8        29.87F
LAPEER         CLOUDY    49  47  96 SE3       29.90S
MASON          CLOUDY    52  51  94 S7        29.87F
MONROE         DRIZZLE   46  46  99 E5        29.89F
MT. CLEMENS    CLOUDY    48  48 100 SE6       29.90S FOG
PONTIAC        CLOUDY    49  47  93 SE7       29.89F FOG
PORT HOPE        N/A     35  34  96 SE8       29.90F WCI  29
PORT HURON     DRIZZLE   48  46  93 E8        29.91F
TRI CITIES     CLOUDY    44  43  96 NE8       29.89F FOG
MIDLAND        CLOUDY    43  42  95 NE5       29.89F FOG
TROY           CLOUDY    49  46  89 E6        29.92F FOG
SAGINAW HB     LGT RAIN  48  45  87 CALM      29.89F
$$
MIZ043>046-050>051-056>058-064>065-071>073-077>080-262200-
SOUTHWEST LOWER MICHIGAN

CITY           SKY/WX    TMP DP  RH WIND       PRES   REMARKS
BATTLE CREEK   CLOUDY    56  52  86 S6        29.85F
BENTON HARBOR  LGT RAIN  57  54  89 S5        29.83S FOG
BIG RAPIDS     CLOUDY    44  42  93 SE5       29.85F FOG
COLDWATER      CLOUDY    56  53  88 SE3       29.85F
FREMONT        CLOUDY    46  46  99 E7        29.84F
HOLLAND        CLOUDY    57  53  86 SE6       29.83F
GRAND RAPIDS   LGT RAIN  52  51  97 E5        29.84F FOG
IONIA          CLOUDY    51  49  93 CALM      29.85F
KALAMAZOO      CLOUDY    56  50  80 S3        29.85F
LUDINGTON      RAIN      46  46  99 SE8       29.83F
MARSHALL       CLOUDY    56  53  87 S7        29.85F
MOUNT PLEASANT CLOUDY    43  41  95 E3        29.87F
MUSKEGON       CLOUDY    51  49  92 E7        29.84F FOG
SOUTH HAVEN    CLOUDY    56  55  97 S3        29.82F
$$
MIZ016>042-262200-
NORTHERN LOWER MICHIGAN

CITY           SKY/WX    TMP DP  RH WIND       PRES   REMARKS
ALPENA         RAIN      37  37 100 E9        29.93F FOG     WCI  30
BEAVER ISLAND  FOG       35  35 100 E8        29.90R VSB 3/4 WCI  29
BELLAIRE       LGT RAIN  45  41  87 S3        29.88S
CADILLAC       CLOUDY    43  41  95 SE7       29.84F
CHARLEVOIX     CLOUDY    41  40  96 SE7       29.90S
FRANKFORT      DRIZZLE   48  46  91 CALM      29.84F
GAYLORD        LGT RAIN  42  38  85 SE8       29.85F FOG
GRAYLING       RAIN      41  41 100 CALM      29.88S
HARBOR SPRINGS CLOUDY    38  38  97 NE12      29.87F WCI  31
HOUGHTON LAKE  LGT RAIN  42  40  92 SE3       29.87F FOG
MANISTEE       LGT RAIN  46  45  93 SE6       29.84S FOG
OSCODA         MIX PCPN  38  37  96 E7        29.91S WCI  32
PELLSTON       CLOUDY    38  35  89 E9        29.90F FOG     WCI  31
ROGERS CITY    MIX PCPN  37  35  93 E9        29.94S WCI  30
TRAVERSE CITY  LGT RAIN  45  42  89 SE5       29.85F FOG
$$
MIZ007>008-015-262200-
EASTERN UPPER MICHIGAN

CITY           SKY/WX    TMP DP  RH WIND       PRES   REMARKS
KINROSS        MIX PCPN  32  31  96 E14       29.93F FOG     WCI  22
MACKINAC ISLAN LGT SNOW  33  33 100 E17G24    29.91F WCI  22
NEWBERRY       CLOUDY    33  33  96 E8        29.90F FOG     WCI  27
S. S. MARIE    LGT RAIN  34  32  92 E9        29.95S FOG     WCI  27
MUNISING         N/A     35  33  92 N3        29.89F
$$
MIZ004>006-011>014-085-262200-
CENTRAL UPPER MICHIGAN

CITY           SKY/WX    TMP DP  RH WIND       PRES   REMARKS
MANISTIQUE     CLOUDY    36  34  93 E10       29.90R FOG     WCI  28
ESCANABA       CLOUDY    37  35  92 E9        29.89F WCI  30
MENOMINEE        N/A    N/A N/A N/A MISG        N/A
SAWYER-GWINN   LGT RAIN  34  34 100 NE8       29.87F WCI  27
$$
MIZ001>003-009>011-084-262200-
WESTERN UPPER MICHIGAN

CITY           SKY/WX    TMP DP  RH WIND       PRES   REMARKS
IRON MOUNTAIN  CLOUDY    37  33  85 E3        29.85S
HOUGHTON       CLOUDY    35  31  85 NE5       29.88F WCI  31
COPPER HARBOR    N/A     35  34  96 E5        29.91F WCI  31
IRONWOOD       CLOUDY    36  32  87 N7        29.89F WCI  30
$$

ABBREVIATIONS USED IN REMARKS
   TC - TEMPERATURE IN CELSIUS
  WCI - WIND CHILL INDEX
   HX - HEAT INDEX
  VSB - VISIBILITY





USA.gov is the U.S. government's official web portal to all federal, state and local government web resources and services.